DEWWG EDXW-EDXW

Flight info

Callsign DEWWG
Flight time N/A
Altitude
Route
Aircraft SF50

Departure

Time 2026-05-08 21:11
Airport Westerland Sylt Airport (EDXW)

Arrival

Time N/A
Airport Westerland Sylt Airport (EDXW)
Time Latitude Longitude Altitude Speed Heading
2026-05-08 21:06 54.91406 8.32437 21 ft 0 kts 101°
2026-05-08 21:08 54.91377 8.32461 21 ft 13 kts 136°
2026-05-08 21:08 54.91283 8.32552 21 ft 17 kts 156°
2026-05-08 21:08 54.91170 8.32613 22 ft 17 kts 139°
2026-05-08 21:08 54.91094 8.32727 22 ft 14 kts 118°
2026-05-08 21:09 54.91064 8.32861 24 ft 8 kts 114°
2026-05-08 21:09 54.91035 8.32951 27 ft 13 kts 122°
2026-05-08 21:09 54.91057 8.33249 27 ft 39 kts 60°
2026-05-08 21:09 54.91185 8.33619 27 ft 31 kts 47°
2026-05-08 21:10 54.91261 8.33837 28 ft 12 kts 60°
2026-05-08 21:10 54.91290 8.33932 29 ft 7 kts 63°
2026-05-08 21:10 54.91254 8.34132 30 ft 40 kts 142°
2026-05-08 21:10 54.90872 8.34680 121 ft 97 kts 151°
2026-05-08 21:11 54.90201 8.35387 687 ft 115 kts 142°
2026-05-08 21:11 54.89917 8.36678 1205 ft 150 kts 71°
2026-05-08 21:11 54.90803 8.37048 1180 ft 198 kts 336°
2026-05-08 21:11 54.92135 8.35788 1111 ft 210 kts 333°
2026-05-08 21:12 54.93277 8.34563 1100 ft 178 kts 332°
2026-05-08 21:12 54.93615 8.33175 782 ft 153 kts 214°
2026-05-08 21:12 54.92772 8.32514 407 ft 110 kts 169°
2026-05-08 21:12 54.92207 8.32968 205 ft 79 kts 142°
2026-05-08 21:13 54.91780 8.33484 31 ft 65 kts 140°
2026-05-08 21:13 54.91411 8.33973 46 ft 89 kts 142°
2026-05-08 21:13 54.90754 8.34751 234 ft 129 kts 142°
2026-05-08 21:13 54.90069 8.35661 942 ft 120 kts 123°
2026-05-08 21:14 54.90520 8.36611 970 ft 147 kts 15°
2026-05-08 21:14 54.91707 8.36510 1038 ft 204 kts 354°
2026-05-08 21:14 54.92970 8.35341 1191 ft 203 kts 324°
2026-05-08 21:14 54.93802 8.33446 990 ft 223 kts 250°
2026-05-08 21:15 54.92472 8.32638 682 ft 218 kts 154°
2026-05-08 21:15 54.91227 8.34196 45 ft 233 kts 143°
2026-05-08 21:15 54.90017 8.35715 1263 ft 183 kts 140°
2026-05-08 21:15 54.89137 8.37322 1640 ft 191 kts 112°
2026-05-08 21:16 54.88757 8.39368 1750 ft 160 kts 108°
2026-05-08 21:16 54.88424 8.41148 1362 ft 152 kts 108°
2026-05-08 21:16 54.88358 8.42854 1353 ft 138 kts 87°
2026-05-08 21:16 54.88433 8.44594 1443 ft 151 kts 89°
2026-05-08 21:17 54.88454 8.46478 1529 ft 167 kts 94°
2026-05-08 21:17 54.88413 8.48618 1703 ft 186 kts 94°
2026-05-08 21:17 54.88364 8.51008 1812 ft 205 kts 94°
2026-05-08 21:17 54.88372 8.53483 1810 ft 205 kts 88°
2026-05-08 21:18 54.88479 8.55986 1819 ft 211 kts 88°
2026-05-08 21:18 54.88559 8.58525 1814 ft 210 kts 88°
2026-05-08 21:18 54.88627 8.61174 1816 ft 232 kts 91°
2026-05-08 21:18 54.88619 8.63941 1804 ft 228 kts 92°
2026-05-08 21:19 54.88591 8.66735 2011 ft 228 kts 92°
2026-05-08 21:19 54.88206 8.69364 2456 ft 229 kts 122°
2026-05-08 21:19 54.86930 8.70982 2884 ft 234 kts 162°
2026-05-08 21:19 54.85313 8.71153 3348 ft 234 kts 180°
2026-05-08 21:20 54.83688 8.71036 3812 ft 234 kts 180°